This is the latest recevied weather packets stored in our database for station/object KA7EII-13. If no packets are shown the sender has not sent any weather packets the latest 10 day(s).
| Time | Temp. | Humidity | Pressure | Rain* | Wind** | Luminosity | Snow |
|---|---|---|---|---|---|---|---|
| 1777770049 | 20.56° C | 23% | 1105 hPa | 0 mm | - | 52 W/m² | - |
| 1777769746 | 20.56° C | 21% | 1105 hPa | 0 mm | - | 54 W/m² | - |
| 1777769444 | 21.11° C | 23% | 1105.1 hPa | 0 mm | - | 89 W/m² | - |
| 1777769139 | 21.67° C | 22% | 1104.8 hPa | 0 mm | - | 93 W/m² | - |
| 1777768838 | 21.67° C | 22% | 1105.1 hPa | 0 mm | - | 132 W/m² | - |
| 1777768534 | 22.78° C | 21% | 1105 hPa | 0 mm | - | 149 W/m² | - |
| 1777768232 | 22.22° C | 20% | 1105.1 hPa | 0 mm | - | 166 W/m² | - |
| 1777767928 | 22.22° C | 20% | 1105 hPa | 0 mm | - | 184 W/m² | - |
| 1777767625 | 22.22° C | 22% | 1105.1 hPa | 0 mm | - | 197 W/m² | - |
| 1777767321 | 22.78° C | 21% | 1105.2 hPa | 0 mm | - | 212 W/m² | - |
| 1777767019 | 22.78° C | 20% | 1105.3 hPa | 0 mm | - | 218 W/m² | - |
| 1777766716 | 22.22° C | 20% | 1105.1 hPa | 0 mm | - | 199 W/m² | - |
| 1777766413 | 22.22° C | 22% | 1105.4 hPa | 0 mm | - | 214 W/m² | - |
| 1777766109 | 22.22° C | 21% | 1105.3 hPa | 0 mm | - | 211 W/m² | - |
| 1777765808 | 22.78° C | 21% | 1105.3 hPa | 0 mm | - | 249 W/m² | - |
| 1777765503 | 23.33° C | 22% | 1105.5 hPa | 0 mm | - | 263 W/m² | - |
| 1777765201 | 23.33° C | 22% | 1105.3 hPa | 0 mm | - | 340 W/m² | - |
| 1777764901 | 22.22° C | 22% | 1105.5 hPa | 0 mm | - | 355 W/m² | - |
| 1777764598 | 22.22° C | 23% | 1105.5 hPa | 0 mm | - | 358 W/m² | - |
| 1777764295 | 21.67° C | 24% | 1105.6 hPa | 0 mm | - | 276 W/m² | - |
| 1777763992 | 22.22° C | 26% | 1105.6 hPa | 0 mm | - | 251 W/m² | - |
| 1777763689 | 21.67° C | 24% | 1105.6 hPa | 0 mm | - | 237 W/m² | - |
| 1777763387 | 21.67° C | 25% | 1105.6 hPa | 0 mm | - | 198 W/m² | - |
| 1777763085 | 21.67° C | 24% | 1105.6 hPa | 0 mm | - | 177 W/m² | - |
| 1777762783 | 22.22° C | 24% | 1105.9 hPa | 0 mm | - | 238 W/m² | - |
* Rain latest hour (hover to see other rain measurements)
** Current wind speed in m/s (hover to see current wind gust speed)